Regional Weather Roundup
Issued by NWS

Home | Current Version | Previous Version | Graphics & Text | Print | Product List | Glossary On
Versions: 1 2 3 4 5 6 7 8 9 10 11 12 13 14 15 16 17 18 19 20 21 22 23 24 25 26 27 28 29 30 31 32 33 34 35 36 37 38 39 40 41 42 43 44 45 46 47 48 49 50
000
ASUS43 KLOT 300404
RWRIL

ILLINOIS REGIONAL WEATHER ROUNDUP
NATIONAL WEATHER SERVICE CHICAGO/ROMEOVILLE IL
1100 PM CDT FRI JUL 29 2016

NOTE: "FAIR" INDICATES FEW OR NO CLOUDS BELOW 12,000 FEET WITH NO
SIGNIFICANT WEATHER AND/OR OBSTRUCTIONS TO VISIBILITY.

* THESE STATIONS ARE NOT UNDER NWS QUALITY CONTROL. THEY ALSO MAY NOT
  REPORT WEATHER SUCH AS PRECIPITATION OR FOG.

ILZ001-002-007-009-015-016-024-300500-
NORTHWEST ILLINOIS

CITY           SKY/WX    TMP DP  RH WIND       PRES   REMARKS
MOLINE         CLOUDY    71  66  84 E7        29.95S
STERLING*      MOCLDY    69  67  93 NE7       29.96F
SAVANNA*       CLOUDY    69  66  89 NE6       29.97S
$$

ILZ003-004-008-010-011-017-018-300500-
NORTH CENTRAL ILLINOIS

CITY           SKY/WX    TMP DP  RH WIND       PRES   REMARKS
ROCKFORD       CLOUDY    69  65  86 NE8       29.98S
FREEPORT*      CLOUDY    67  65  91 NE6       30.00S
ROCHELLE*      CLOUDY    67  66  96 N8        29.97S
DE KALB*       CLOUDY    69  67  93 NE9       29.97F
$$

ILZ005-006-012>014-019>023-300500-
NORTHEAST ILLINOIS

CITY           SKY/WX    TMP DP  RH WIND       PRES   REMARKS
CHICAGO-OHARE  CLOUDY    70  67  90 N7        29.95S
CHICAGO-MIDWAY CLOUDY    74  65  73 NE8       29.94S
AURORA         PTCLDY    69  67  93 NE7       29.95F
LANSING*       MOCLDY    69  66  90 CALM      29.94S
WAUKEGAN       MOCLDY    70  67  90 NE5       29.96S
DUPAGE AIRPORT CLOUDY    69  66  90 N6        29.95S
KANKAKEE*      CLEAR     68  66  93 NE5       29.93S
WHEELING       CLOUDY    70  66  87 N6        29.97S
MORRIS*        CLEAR     68  67  96 CALM      29.93S FOG
NORTHERLY ISL    N/A     73  68  84 NE13        N/A
$$

LMZ740>746-300500-
SOUTHERN LAKE MICHIGAN

STATION/POSITION SKY/WX   TEMP    WIND        PRES    VSBY  WAVE
                          AIR SEA DIR/SP/G                  HT/PER
                          (F)     (DEG/KT/KT) (MB)    (MI)  (FT/S)
SOUTHERN BUOY              73 74   70/ 14/ 17 1014.2          3/ 4
WILMETTE HARBOR            73 72  100/ 12/ 16   N/A           3/ 5
HARRISON CRIB              75      60/ 16/ 18   N/A
BURNHAM HARBOR             73      50/ 12/ 15   N/A
CALUMET HARBOR                                1013.2F
BURNS HARBOR               71      70/  8/ 11 1013.9F
MICHIGAN CITY              71      50/ 10/ 10   N/A
MICHIGAN CITY 6N           75 76   70/ 14/ 17   N/A           3/ 5
ST. JOSEPH                 72 75   30/ 12/ 16 1013.7R         2
$$

ILZ025>027-034>036-040-047-049-050-058-095>099-300500-
WEST-CENTRAL ILLINOIS

CITY           SKY/WX    TMP DP  RH WIND       PRES   REMARKS
QUINCY         CLEAR     69  67  93 CALM      29.95S
GALESBURG*     FOG       66  65  97 N5        29.95R VSB 3/4
MACOMB*        PTCLDY    66  65  96 W6        29.96S
JACKSONVILLE*  CLEAR     67  66  95 CALM      29.94S
PITTSFIELD*    CLEAR     69  67  94 CALM      29.97R
$$

ILZ028>032-037-038-041>044-048-051>054-059>061-300500-
CENTRAL ILLINOIS

CITY           SKY/WX    TMP DP  RH WIND       PRES   REMARKS
PONTIAC        MOCLDY    70  70 100 CALM      29.93F FOG
BLOOMINGTON    CLEAR     71  68  90 CALM      29.93F
DECATUR        CLEAR     73  66  78 W3        29.93F
PEORIA         CLEAR     70  68  93 N5        29.93R
LACON*         CLOUDY    69  68  97 CALM      29.93F FOG
LINCOLN*       CLEAR     72  67  84 CALM      29.92F
SPRINGFIELD    CLEAR     70  67  90 CALM      29.93F
TAYLORVILLE    CLEAR     68  67  95 MISG      29.95S
$$

ILZ033-039-045-046-055>057-062-063-300500-
EAST-CENTRAL ILLINOIS

CITY           SKY/WX    TMP DP  RH WIND       PRES   REMARKS
CHAMPAIGN      PTCLDY    69  66  90 W6        29.93S
MATTOON        CLOUDY    73  68  84 W3        29.93F
PARIS*         CLEAR     68  68 100 CALM      29.93F
$$

ILZ079-100>102-300500-
SOUTHWEST ILLINOIS

CITY           SKY/WX    TMP DP  RH WIND       PRES   REMARKS
ALTON          CLEAR     71  69  92 CALM      29.95S
BELLEVILLE     MOCLDY    73  73 100 CALM      29.93S
CAHOKIA*       PTCLDY    74  71  91 S5        29.94R
SPARTA*        HVY RAIN  71  70  96 E6        29.96S
$$

ILZ064>066-069>071-074>076-080>082-084>086-088>090-092>094-300500-
SOUTH-CENTRAL ILLINOIS

CITY           SKY/WX    TMP DP  RH WIND       PRES   REMARKS
CARBONDALE     PTCLDY    75  73  93 S5        29.94R
CAIRO*         PTCLDY    70  70 100 CALM      29.94F FOG
EFFINGHAM*     CLEAR     71  71 100 CALM      29.96S
MARION         MOCLDY    75  73  94 CALM      29.95S
MT. VERNON     MOCLDY    73  70  88 CALM      29.95S
CENTRALIA*     DRIZZLE   75  74  95 CALM      29.94S
SALEM*         CLOUDY    75  72  92 CALM      29.94S
METROPOLIS*    CLOUDY    74  73  98 CALM      29.94F FOG
$$

ILZ067-068-072-073-078-083-087-091-300500-
SOUTHEAST ILLINOIS

CITY           SKY/WX    TMP DP  RH WIND       PRES   REMARKS
LAWRENCEVILLE  PTCLDY    72  70  93 CALM        N/A
FLORA*         PTCLDY    73  71  94 CALM      29.94F
FAIRFIELD*     CLEAR     73  73 100 CALM      29.93S
HARRISBURG*    MOCLDY    74  74 100 CALM      29.94S FOG
ROBINSON*      PTCLDY    68  67  97 CALM      29.93F
CARMI*         CLOUDY    73  73 100 CALM      29.93S
$$

ABBREVIATIONS USED IN REMARKS
   TC - TEMPERATURE IN CELSIUS
  WCI - WIND CHILL INDEX
   HX - HEAT INDEX
  VSB - VISIBILITY
$$





USA.gov is the U.S. government's official web portal to all federal, state and local government web resources and services.